Dubois Muni, Dubois, WY, WY

9:05 AM MDT on May 28, 2017 (GMT -0600)
Dubois Muni, Dubois, WY

Weather History for KDUB - December, 2013

Change the Weather History Date:

Saturday, December 21, 2013

  Actual Average (KJAC) Record (KJAC)
Temperature  
Mean Temperature 19 °F -  
Max Temperature 26 °F 22 °F 42 °F (1969)
Min Temperature 12 °F 0 °F -29 °F (1990)
Degree Days  
Heating Degree Days 46    
Moisture  
Dew Point 9 °F    
Average Humidity 65    
Maximum Humidity 85    
Minimum Humidity 51    
Precipitation  
Precipitation 0.00 in - - ()
Sea Level Pressure  
Sea Level Pressure 29.64 in    
Wind  
Wind Speed 19 mph (NW)    
Max Wind Speed 28 mph    
Max Gust Speed 34 mph    
Visibility 10 miles    
Events      
Averages and records for this station are not official NWS values.
T = Trace of Precipitation, MM = Missing Value Source: NWS Daily Summary

Daily Weather History Graph

Daily Weather History Graph

Search for Another Location

Airport or City:

Trip Planner

Search our weather history database for the weather conditions in past years. The results will help you decide how hot, cold, wet, or windy it might be!

Date:

Astronomy

Dec. 21, 2013 Rise Set
Actual Time 7:48 AM MST 4:45 PM MST
Civil Twilight 7:16 AM MST 5:18 PM MST
Nautical Twilight 6:39 AM MST 5:54 PM MST
Astronomical Twilight 6:04 AM MST 6:29 PM MST
Moon 9:11 PM MST (12/21) 10:10 AM MST (12/21)
Length of Visible Light 10h 02m
Length of Day
8h 56m
Waning Gibbous, 84% of the Moon is Illuminated
Dec 21
Waning Gibbous
Dec 25
Last Quarter
Jan 1
New
Jan 7
First Quarter
Jan 15
Full

Hourly Weather History & Observations

Time (MST) Temp. Windchill Dew Point Humidity Pressure Visibility Wind Dir Wind Speed Gust Speed Precip Events Conditions
12:15 AM 15.8 °F -1.9 °F 5.0 °F 62% 29.49 in 10.0 mi North 21.9 mph 32.2 mph N/A   Scattered Clouds
12:35 AM 15.8 °F -3.1 °F 5.0 °F 62% 29.48 in 10.0 mi North 25.3 mph 34.5 mph N/A   Scattered Clouds
12:55 AM 15.8 °F -2.7 °F 8.6 °F 73% 29.47 in 10.0 mi North 24.2 mph 34.5 mph N/A   Mostly Cloudy
1:15 AM 15.8 °F -2.3 °F 6.8 °F 68% 29.47 in 10.0 mi NNW 23.0 mph 32.2 mph N/A   Mostly Cloudy
1:35 AM 15.8 °F -1.5 °F 6.8 °F 68% 29.48 in 10.0 mi NNW 20.7 mph 31.1 mph N/A   Mostly Cloudy
1:55 AM 15.8 °F -2.7 °F 6.8 °F 68% 29.47 in 10.0 mi NNW 24.2 mph 31.1 mph N/A   Mostly Cloudy
2:15 AM 15.8 °F -2.3 °F 6.8 °F 68% 29.47 in 10.0 mi NNW 23.0 mph 32.2 mph N/A   Mostly Cloudy
2:35 AM 15.8 °F -2.7 °F 6.8 °F 68% 29.48 in 10.0 mi NNW 24.2 mph 29.9 mph N/A   Overcast
2:55 AM 15.8 °F -2.3 °F 6.8 °F 68% 29.48 in 10.0 mi NNW 23.0 mph 28.8 mph N/A   Scattered Clouds
3:15 AM 15.8 °F -1.1 °F 6.8 °F 68% 29.49 in 10.0 mi NNW 19.6 mph 29.9 mph N/A   Clear
3:35 AM 15.8 °F -2.3 °F 6.8 °F 68% 29.48 in 10.0 mi North 23.0 mph 29.9 mph N/A   Clear
3:55 AM 15.8 °F -1.1 °F 6.8 °F 68% 29.49 in 10.0 mi North 19.6 mph 28.8 mph N/A   Clear
4:10 AM 15.8 °F -0.2 °F 5.0 °F 62% 29.49 in 10.0 mi North 17.3 mph 26.5 mph N/A   Clear
4:35 AM 14.0 °F -3.0 °F 5.0 °F 67% 29.50 in 10.0 mi North 18.4 mph 23.0 mph N/A   Clear
4:55 AM 14.0 °F -1.4 °F 5.0 °F 67% 29.50 in 10.0 mi NNW 15.0 mph 20.7 mph N/A   Mostly Cloudy
5:15 AM 14.0 °F -0.8 °F 6.8 °F 73% 29.51 in 10.0 mi NNW 13.8 mph 19.6 mph N/A   Overcast
5:35 AM 14.0 °F -0.8 °F 6.8 °F 73% 29.52 in 10.0 mi NNW 13.8 mph - N/A   Scattered Clouds
5:55 AM 14.0 °F -0.2 °F 6.8 °F 73% 29.52 in 10.0 mi NNW 12.7 mph - N/A   Clear
6:15 AM 14.0 °F -0.8 °F 6.8 °F 73% 29.53 in 10.0 mi NNW 13.8 mph - N/A   Clear
6:35 AM 14.0 °F -0.2 °F 8.6 °F 79% 29.53 in 10.0 mi North 12.7 mph - N/A   Mostly Cloudy
6:55 AM 14.0 °F -0.8 °F 8.6 °F 79% 29.55 in 7.0 mi North 13.8 mph 23.0 mph N/A   Overcast
7:15 AM 12.2 °F -3.7 °F 8.6 °F 85% 29.55 in 10.0 mi NW 15.0 mph - N/A   Scattered Clouds
7:30 AM 12.2 °F -4.3 °F 8.6 °F 85% 29.56 in 10.0 mi NW 16.1 mph - N/A   Scattered Clouds
7:55 AM 14.0 °F -2.0 °F 6.8 °F 73% 29.56 in 10.0 mi NW 16.1 mph - N/A   Scattered Clouds
8:15 AM 14.0 °F -0.2 °F 6.8 °F 73% 29.57 in 10.0 mi NNW 12.7 mph - N/A   Scattered Clouds
8:35 AM 15.8 °F 2.1 °F 8.6 °F 73% 29.59 in 10.0 mi NNW 12.7 mph - N/A   Overcast
8:55 AM 17.6 °F 5.0 °F 10.4 °F 73% 29.59 in 10.0 mi NNW 11.5 mph 17.3 mph N/A   Overcast
9:15 AM 17.6 °F 3.7 °F 10.4 °F 73% 29.61 in 10.0 mi NNW 13.8 mph - N/A   Overcast
9:35 AM 17.6 °F 3.7 °F 10.4 °F 73% 29.61 in 10.0 mi NW 13.8 mph - N/A   Overcast
9:55 AM 19.4 °F 5.0 °F 10.4 °F 68% 29.61 in 10.0 mi NW 16.1 mph 21.9 mph N/A   Mostly Cloudy
10:15 AM 21.2 °F 6.8 °F 12.2 °F 68% 29.61 in 10.0 mi NNW 17.3 mph 25.3 mph N/A   Scattered Clouds
10:35 AM 21.2 °F 7.3 °F 12.2 °F 68% 29.62 in 10.0 mi NNW 16.1 mph 23.0 mph N/A   Scattered Clouds
10:55 AM 21.2 °F 10.9 °F 10.4 °F 63% 29.63 in 10.0 mi North 9.2 mph 18.4 mph N/A   Overcast
11:15 AM 23.0 °F 13.1 °F 10.4 °F 59% 29.64 in 10.0 mi North 9.2 mph - N/A   Overcast
11:35 AM 23.0 °F 11.7 °F 12.2 °F 63% 29.64 in 10.0 mi NW 11.5 mph - N/A   Overcast
11:55 AM 23.0 °F 9.2 °F 12.2 °F 63% 29.63 in 10.0 mi NW 17.3 mph 24.2 mph N/A   Overcast
12:15 PM 26.6 °F 14.7 °F 12.2 °F 55% 29.63 in 10.0 mi NW 15.0 mph 25.3 mph N/A   Mostly Cloudy
12:35 PM 24.8 °F 12.9 °F 12.2 °F 59% 29.63 in 10.0 mi NNW 13.8 mph 23.0 mph N/A   Overcast
12:55 PM 24.8 °F 12.9 °F 10.4 °F 54% 29.63 in 10.0 mi WNW 13.8 mph 23.0 mph N/A   Mostly Cloudy
1:15 PM 24.8 °F 11.9 °F 12.2 °F 59% 29.64 in 10.0 mi NW 16.1 mph 20.7 mph N/A   Mostly Cloudy
1:35 PM 26.6 °F 13.8 °F 10.4 °F 51% 29.65 in 10.0 mi NW 17.3 mph 25.3 mph N/A   Overcast
1:55 PM 26.6 °F 14.3 °F 12.2 °F 55% 29.65 in 10.0 mi NW 16.1 mph 21.9 mph N/A   Overcast
2:15 PM 26.6 °F 14.3 °F 12.2 °F 55% 29.66 in 10.0 mi WNW 16.1 mph - N/A   Overcast
2:35 PM 26.6 °F 16.8 °F 12.2 °F 55% 29.67 in 10.0 mi NW 10.4 mph - N/A   Overcast
2:55 PM 24.8 °F 13.4 °F 12.2 °F 59% 29.67 in 10.0 mi NW 12.7 mph - N/A   Overcast
3:15 PM 24.8 °F 13.4 °F 12.2 °F 59% 29.68 in 10.0 mi WNW 12.7 mph - N/A   Overcast
3:35 PM 24.8 °F 11.5 °F 12.2 °F 59% 29.69 in 10.0 mi WNW 17.3 mph 24.2 mph N/A   Overcast
3:55 PM 24.8 °F 10.3 °F 12.2 °F 59% 29.70 in 10.0 mi WNW 20.7 mph 25.3 mph N/A   Overcast
4:15 PM 23.0 °F 7.6 °F 12.2 °F 63% 29.70 in 10.0 mi WNW 21.9 mph 27.6 mph N/A   Overcast
4:35 PM 23.0 °F 8.0 °F 12.2 °F 63% 29.72 in 10.0 mi WNW 20.7 mph 26.5 mph N/A   Mostly Cloudy
4:55 PM 23.0 °F 9.2 °F 12.2 °F 63% 29.73 in 10.0 mi WNW 17.3 mph 23.0 mph N/A   Overcast
5:15 PM 23.0 °F 9.6 °F 12.2 °F 63% 29.74 in 10.0 mi WNW 16.1 mph 25.3 mph N/A   Overcast
5:35 PM 23.0 °F 7.6 °F 10.4 °F 59% 29.73 in 10.0 mi WNW 21.9 mph 27.6 mph N/A   Mostly Cloudy
5:55 PM 21.2 °F 5.2 °F 10.4 °F 63% 29.74 in 10.0 mi WNW 21.9 mph 27.6 mph N/A   Mostly Cloudy
6:15 PM 21.2 °F 6.0 °F 10.4 °F 63% 29.74 in 10.0 mi WNW 19.6 mph 26.5 mph N/A   Mostly Cloudy
6:35 PM 21.2 °F 6.8 °F 10.4 °F 63% 29.75 in 10.0 mi WNW 17.3 mph 23.0 mph N/A   Scattered Clouds
6:55 PM 21.2 °F 6.0 °F 10.4 °F 63% 29.76 in 10.0 mi WNW 19.6 mph 25.3 mph N/A   Scattered Clouds
7:15 PM 21.2 °F 6.0 °F 10.4 °F 63% 29.76 in 10.0 mi WNW 19.6 mph 31.1 mph N/A   Mostly Cloudy
7:35 PM 21.2 °F 3.5 °F 10.4 °F 63% 29.77 in 10.0 mi WNW 27.6 mph 31.1 mph N/A   Overcast
7:55 PM 21.2 °F 6.0 °F 8.6 °F 58% 29.78 in 10.0 mi WNW 19.6 mph 25.3 mph N/A   Mostly Cloudy
8:15 PM 21.2 °F 6.0 °F 10.4 °F 63% 29.78 in 10.0 mi WNW 19.6 mph 27.6 mph N/A   Mostly Cloudy
8:35 PM 21.2 °F 6.8 °F 8.6 °F 58% 29.79 in 10.0 mi WNW 17.3 mph 29.9 mph N/A   Mostly Cloudy
8:55 PM 21.2 °F 5.6 °F 10.4 °F 63% 29.80 in 10.0 mi WNW 20.7 mph 26.5 mph N/A   Mostly Cloudy
9:15 PM 21.2 °F 6.8 °F 8.6 °F 58% 29.81 in 10.0 mi WNW 17.3 mph 28.8 mph N/A   Scattered Clouds
9:35 PM 21.2 °F 6.0 °F 10.4 °F 63% 29.81 in 10.0 mi WNW 19.6 mph 28.8 mph N/A   Scattered Clouds
9:50 PM 21.2 °F 4.5 °F 8.6 °F 58% 29.81 in 10.0 mi West 24.2 mph 29.9 mph N/A   Scattered Clouds
10:15 PM 21.2 °F 6.4 °F 10.4 °F 63% 29.82 in 10.0 mi WNW 18.4 mph 24.2 mph N/A   Mostly Cloudy
10:35 PM 21.2 °F 7.3 °F 10.4 °F 63% 29.83 in 10.0 mi WNW 16.1 mph 23.0 mph N/A   Overcast
10:55 PM 19.4 °F 3.6 °F 10.4 °F 68% 29.83 in 10.0 mi WNW 19.6 mph - N/A   Mostly Cloudy
11:15 PM 21.2 °F 6.0 °F 10.4 °F 63% 29.83 in 10.0 mi WNW 19.6 mph 28.8 mph N/A   Mostly Cloudy
11:35 PM 21.2 °F 6.4 °F 10.4 °F 63% 29.84 in 10.0 mi WNW 18.4 mph 26.5 mph N/A   Overcast
11:55 PM 21.2 °F 6.4 °F 10.4 °F 63% 29.83 in 10.0 mi WNW 18.4 mph 26.5 mph N/A   Overcast